Welcome to the New NWS' Forecast!
Most changes are behind the scenes, but click here for differences you might notice.
Latest weather observations around

Charleston, Charleston Air Force Base (KCHS)

Using English Units (Switch to International System of Units)
Date/ Time (EDT) Wind (mph) Vis. (mi) Weather Sky Cond. Temp (°F) Rel. Humidity Wind Chill (°F) Heat Index (°F) Pressure Precip. (in)
Air Dwpt 6 hour Altimeter (inHg) Sea level (inHg) 1 hr 3 hr 6 hr
Max Min
Oct 17 10:02 W 10 10 Cloudy OVC010 80 76     87%   85 30.14        
Oct 17 09:56 W 8 10 Partly Cloudy SCT010 80 76     87%   85 30.14 30.14      
Oct 17 08:56 WSW 9 10 Mostly Cloudy FEW020 SCT070 BKN100 79 76     90%   83 30.12 30.12      
Oct 17 07:56 WSW 5 10 Mostly Cloudy SCT015 BKN080 77 76     96%   79 30.1 30.1      
Oct 17 06:56 WSW 5 10 Mostly Cloudy FEW009 SCT028 BKN045 76 75     97%   78 30.09 30.09      
Oct 17 06:41 W 5 10 Mostly Cloudy FEW009 SCT028 BKN045 77 75     94%   79 30.09        
Oct 17 05:56 W 6 10 Mostly Cloudy FEW009 BKN028 BKN090 77 75     94%   79 30.09 30.09      
Oct 17 04:56 WSW 5 10 Mostly Cloudy FEW006 SCT015 BKN028 77 75     94%   79 30.08 30.07      
Oct 17 04:27 WNW 3 10 Mostly Cloudy FEW006 SCT012 BKN020 77 76     96%   79 30.08        
Oct 17 03:56 W 3 10 Mostly Cloudy FEW004 SCT016 BKN090 77 76     96%   79 30.08 30.08      
Oct 17 03:22 W 5 10 Cloudy FEW004 SCT018 OVC060 77 76     96%   79 30.09        
Oct 17 02:56 NW 5 10 Cloudy FEW004 BKN014 OVC018 77 76     96%   79 30.09 30.08      
Oct 17 02:42 NW 3 10 Mostly Cloudy FEW004 BKN013 77 76     96%   79 30.08        
Oct 17 02:36 NNW 5 10 Mostly Cloudy FEW004 SCT015 BKN070 77 76     96%   79 30.08        
Oct 17 01:56 SW 6 10 Mostly Cloudy FEW040 BKN085 78 76     93%   80 30.09 30.08      
Oct 16 23:56 S 5 10 Mostly Clear FEW100 FEW200 76 75     97%   78 30.08 30.08      
Oct 16 22:56 SSW 5 10 Mostly Clear FEW100 FEW200 76 75     97%   78 30.1 30.09      
Oct 16 21:56 S 8 10 Clear CLR 77 75     94%   79 30.09 30.09      
Oct 16 20:56 S 8 10 Mostly Clear FEW025 78 75     90%   80 30.09 30.09      
Oct 16 19:56 SSW 7 10 Clear   78 75     90%   80 30.09 30.08      
Oct 16 18:56 SSW 10 10 Mostly Clear FEW030 FEW200 80 74     82%   85 30.07 30.07      
Oct 16 17:56 SSW 9 10 Partly Cloudy FEW035 SCT200 86 74     67%   94 30.06 30.06      
Oct 16 16:56 SSW 7 10 Mostly Clear FEW040 89 70     53%   94 30.05 30.05      
Oct 16 15:56 WSW 6 10 Partly Cloudy SCT040 89 71     55%   95 30.05 30.05      
Oct 16 14:56 W 8 10 Partly Cloudy SCT040 90 72     56%   97 30.07 30.06      
Oct 16 13:56 3 10 Mostly Clear FEW035 88 72     59%   95 30.09 30.09      
Oct 16 12:56 WSW 8 10 Mostly Clear FEW250 87 72     61%   94 30.12 30.12      
Oct 16 11:56 WSW 7 10 Mostly Clear FEW030 84 72     67%   90 30.15 30.14      
Oct 16 10:56 SW 10 10 Mostly Clear FEW015 81        %     30.16 30.15      
Oct 16 09:56 WSW 7 10 Partly Cloudy SCT006 76        %     30.16 30.16      
Oct 16 09:47 W 5 10 Partly Cloudy SCT006 75        %     30.16        
Oct 16 09:45 W 5 5 Fog/Mist BKN005 75        %     30.16        
Oct 16 09:34 W 6 1 Fog/Mist BKN002 BKN010 75        %     30.16        
Oct 16 09:25 W 6 0.5 Fog/Mist BKN002 BKN010 74        %     30.16        
Oct 16 08:56 W 6 0.25 Fog VV002 74        %     30.15 30.15      
Oct 16 08:50 W 5 0.25 Fog VV002 74        %     30.15        
Oct 16 08:28 W 3 0.12 Fog VV002 75        %     30.14        
Oct 16 08:20 W 3 0.12 Fog/Mist BKN002 BKN010 75        %     30.14        
Oct 16 08:17 W 3 0.75 Fog/Mist BKN004 BKN010 75        %     30.14        
Oct 16 07:56 Calm 10 Mostly Cloudy FEW003 BKN010 73        %     30.13 30.13      
Oct 16 07:36 Calm 5 Fog/Mist SCT003 BKN010 72        %     30.13        
Oct 16 06:56 N 3 7 Patchy Fog FEW003 FEW011 72        %     30.11 30.11      
Oct 16 05:56 Calm 7 Fog FEW003 SCT080 73        %     30.1 30.1      
Oct 16 04:56 SSE 6 6 Fog/Mist FEW003 BKN080 71        %     30.09 30.08      
Oct 16 03:56 Calm 7 Fog FEW003 SCT080 72        %     30.1 30.09      
Oct 16 03:15 Calm 7 Fog FEW003 SCT085 72        %     30.11        
Oct 16 02:56 Calm 8 Fog SCT080 71        %     30.11 30.11      
Oct 16 01:56 Calm 8 Fog CLR 72        %     30.12 30.11      
Oct 16 00:56 Calm 10 Clear CLR 73        %     30.13 30.12      
Oct 15 23:56 SW 3 10 Mostly Clear FEW090 74        %     30.13 30.12      
Oct 15 22:56 SE 6 10 Mostly Clear FEW090 75 71     88%   76 30.12 30.12      
Oct 15 21:56 SE 5 10 Partly Cloudy FEW075 SCT090 77 71     82%   78 30.13 30.13      
Oct 15 20:56 SSE 6 10 Mostly Cloudy BKN075 78 71     79%   79 30.13 30.13      
Oct 15 19:56 S 5 10 Mostly Cloudy BKN080 79 71     77%   82 30.12 30.12      
Oct 15 18:56 SSE 8 10 Mostly Cloudy BKN090 80 71     74%   84 30.11 30.11      
Oct 15 17:56 S 9 10 Mostly Cloudy FEW035 BKN095 81 70     69%   84 30.11 30.11      
Oct 15 16:56 S 9 10 Mostly Cloudy FEW040 BKN090 83 69     63%   87 30.11 30.11      
Oct 15 15:56 SSE 8 10 Mostly Cloudy FEW040 BKN070 85 68     57%   88 30.1 30.1      
Oct 15 14:56 SSE 9 10 Partly Cloudy SCT045 SCT060 85 66     53%   87 30.11 30.11      
Oct 15 13:56 S 8 10 Partly Cloudy SCT040 86 67     53%   89 30.14 30.13      
Oct 15 12:56 S 8 10 Partly Cloudy SCT040 86 69     57%   90 30.16 30.15      
Oct 15 11:56 SSE 14 10 Partly Cloudy SCT040 86 67     53%   89 30.17 30.17      
Oct 15 10:56 SSE 13 10 Mostly Clear FEW030 84 69     61%   88 30.18 30.18      
Oct 15 09:56 S 7 10 Mostly Clear FEW025 82 71     69%   86 30.18 30.17      
Oct 15 08:56 Calm 10 Clear CLR 77 73     88%   79 30.17 30.17      
Oct 15 07:56 Calm 10 Mostly Clear FEW030 FEW200 68 67     96%     30.16 30.16      
Oct 15 06:56 Calm 8 Fog CLR 67 66     97%     30.16 30.15      
Oct 15 05:56 Calm 8 Fog FEW035 67 66     97%     30.14 30.14      
Oct 15 04:56 Calm 8 Fog FEW035 FEW045 68 68     100%     30.12 30.12      
Oct 15 03:56 Calm 8 Fog FEW034 FEW046 67 67     100%     30.14 30.13      
Oct 15 02:56 Calm 8 Fog FEW030 69 68     96%     30.14 30.14      
Oct 15 01:56 Calm 10 Mostly Clear FEW030 69 68     96%     30.14 30.14      
Oct 15 00:56 NNE 3 10 Clear   69        %     30.15 30.14      
Oct 14 23:56 Calm 10 Clear CLR 69        %     30.15 30.15      
Oct 14 22:56 Calm 10 Clear CLR 71        %     30.15 30.15      
Oct 14 21:56 Calm 10 Clear CLR 71        %     30.16 30.15      
Oct 14 20:56 ESE 5 10 Clear CLR 74 68     82%   75 30.14 30.14      
Oct 14 19:56 E 5 10 Mostly Clear FEW200 76 67     74%   77 30.13 30.13      
Oct 14 18:56 SE 7 10 Mostly Clear FEW200 77 66     69%   78 30.11 30.11      
Oct 14 17:56 SSE 8 10 Mostly Clear FEW043 FEW200 80 66     62%   82 30.1 30.1      
Oct 14 16:56 SSE 9 10 Mostly Clear FEW045 FEW220 82 64     55%   84 30.1 30.09      
Oct 14 15:56 SSE 7 10 Partly Cloudy SCT045 84 65     53%   86 30.1 30.1      
Oct 14 14:56 SSE 9 10 Mostly Cloudy SCT045 BKN055 BKN220 82 64     55%   84 30.1 30.09      
Oct 14 13:56 SSE 7 10 Mostly Cloudy BKN045 BKN055 BKN250 85 66     53%   87 30.11 30.1      
Oct 14 12:56 6 10 Mostly Cloudy SCT043 BKN050 82 65     56%   84 30.13 30.12      
Oct 14 11:56 Calm 10 Partly Cloudy SCT036 SCT250 80 65     60%   82 30.13 30.13      
Oct 14 10:56 Calm 10 Mostly Clear FEW250 79 65     62%   80 30.13 30.13      
Oct 14 09:56 NE 3 10 Partly Cloudy FEW150 SCT250 75 64     69%   75 30.13 30.13      
Oct 14 08:56 NNE 3 10 Partly Cloudy FEW040 FEW150 SCT250 68 62     81%     30.12 30.11      
Oct 14 07:56 NNE 5 10 Mostly Cloudy FEW039 SCT150 BKN250 62 59     90%     30.09 30.09      
Oct 14 06:56 N 3 10 Mostly Clear FEW038 60 58     93%     30.08 30.08      
Oct 14 05:56 N 3 10 Clear CLR 60 58     93%     30.07 30.06      
Oct 14 04:56 N 5 10 Clear CLR 61 58     90%     30.05 30.05      
Oct 14 03:56 NNE 3 10 Clear CLR 61 58     90%     30.04 30.04      
Oct 14 02:56 Calm 10 Clear CLR 62 57     84%     30.04 30.04      
Oct 14 01:56 NNE 3 10 Clear CLR 63 57     81%     30.05 30.05      
Oct 14 00:56 NE 3 10 Clear CLR 63 58     84%     30.05 30.04      
Oct 13 23:56 NE 7 10 Clear CLR 65 58     78%     30.05 30.04      
Oct 13 22:56 NE 8 10 Clear CLR 66 58     75%     30.03 30.03      
Oct 13 21:56 NE 8 10 Clear CLR 67 59     76%     30.02 30.02      
Oct 13 20:56 N 7 10 Clear CLR 68 59     73%     30 30      
Oct 13 19:56 NNE 6 10 Clear CLR 69 58     68%     29.97 29.97      
Oct 13 18:56 NNE 6 10 Mostly Clear FEW250 72 58     61%   72 29.94 29.94      
Oct 13 17:56 NNE 7 10 Mostly Clear FEW250 78 58     50%   78 29.92 29.92      
Oct 13 16:56 NW 9 10 Clear CLR 81 57     44%   81 29.92 29.91      
Oct 13 15:56 NNE 6 10 Clear CLR 81 57     44%   81 29.9 29.9      
Oct 13 14:56 NW 9 10 Clear CLR 81 56     42%   81 29.9 29.9      
Oct 13 13:56 NNW 8 10 Clear CLR 81 58     45%   81 29.91 29.91      
Oct 13 12:56 NNW 10 10 Clear CLR 79 56     45%   79 29.93 29.93      
Oct 13 11:56 NNW 13 10 Clear CLR 77 54     45%   77 29.94 29.93      
Oct 13 10:56 W 6 10 Clear CLR 72 55     55%   71 29.93 29.93      
Oct 13 09:56 WNW 10 10 Clear CLR 68 58     70%     29.93 29.92      
Oct 13 05:56 Calm 10 Clear CLR 59 56     90%     29.86 29.86      
Oct 13 00:56 Calm 10 Clear CLR 63 59     87%     29.84 29.84      
Oct 12 21:56 WSW 3 10 Clear CLR 64 59     84%     29.85 29.85      
Oct 12 19:56 NE 3 10 Clear CLR 69 58     68%     29.81 29.81      
Oct 12 17:56 W 6 10 Clear CLR 77 55     47%   77 29.79 29.79      
Oct 12 11:56 NNE 8 10 Clear CLR 75 53     46%   74 29.85 29.84      
Oct 12 08:56 N 7 10 Clear CLR 66 58     75%     29.87 29.86      
Oct 12 07:56 NNW 6 10 Clear CLR 61 58     90%     29.85 29.85      
Oct 12 05:56 NW 6 10 Clear CLR 64 58     81%     29.81 29.81      
Oct 12 01:56 NW 6 10 Clear CLR 73 65     76%   74 29.75 29.75      
Oct 11 23:56 W 8 10 Clear   77 69     77%   78 29.75 29.74      
Oct 11 17:56 WSW 9 10 Mostly Cloudy BKN120 BKN250 85 73     68%   92 29.64 29.64      
Oct 11 13:56 WSW 20 10 Mostly Cloudy and Windy BKN040 BKN250 85 72     65%   91 29.59 29.58     0
Oct 11 10:56   10 Mostly Cloudy BKN027 81 72     74%   85 29.57 29.57   0  
Oct 11 08:56   10 Cloudy BKN030 OVC040 81 73     77%   86 29.55 29.54 0    
Oct 11 08:02   10 Cloudy SCT020 BKN035 OVC045 81 75     82%   87 29.54        
Oct 11 04:56   10 Mostly Cloudy SCT020 BKN025 BKN030 82 77     85%   90 29.59 29.58 0 0  
Oct 10 23:56 SSE 18 10 Mostly Cloudy BKN016 BKN050 82 78     88%   91 29.76 29.75      
Oct 10 17:56 SSE 11 10 Mostly Cloudy SCT020 SCT025 BKN060 83 77     82%   92 29.82 29.82 0    
Oct 10 12:28   2 Rain and Fog/Mist SCT020 BKN030 81 77     88%   88 29.93   0    
Oct 10 11:56 SE 17 10 Mostly Cloudy SCT017 BKN040 BKN200 85 78     80%   97 29.91 29.91 0    
Oct 10 09:56 SE 10 10 Mostly Cloudy SCT015 BKN040 BKN120 81 78     91%   89 29.94 29.93      
Oct 10 02:30 E 9 5 Light Rain and Fog/Mist FEW006 BKN024 BKN050 78 77     96%   81 29.96   0    
Oct 10 01:42 ESE 8 3 Clear   78 77     96%   81 29.98   0    
Oct 10 00:56   6 Clear   78 76     93%   80 30 30 0    
Oct 09 18:56   10 Mostly Cloudy SCT025 BKN065 BKN200 82 72     72%   87 30.03 30.03      
Oct 09 17:56 E 13 10 Mostly Cloudy FEW025 SCT070 BKN200 81 73     77%   86 30.04 30.03      
Oct 09 13:56   10 Light Rain SCT030 BKN040 82 74     77%   88 30.08 30.08 0   0
Oct 09 12:56   10 Light Rain SCT030 BKN040 84 72     67%   90 30.11 30.1 0    
Oct 09 04:56 ENE 9 10 Light Rain FEW030 SCT036 SCT060 76 71     85%   77 30.1 30.1 0 0  
Oct 08 23:56 NE 5 10 Partly Cloudy SCT040 74 71     91%   75 30.15 30.15      
Oct 08 13:56 ESE 15 10 Light Rain SCT030 BKN045 BKN250 83 73     72%   89 30.17 30.16 0   0
Oct 08 12:56 E 16 9 Light Rain SCT030 BKN040 BKN080 82 73     74%   87 30.18 30.18 0    
Oct 08 10:56 ENE 8 10 Mostly Cloudy FEW025 SCT075 BKN200 81 76     85%   87 30.2 30.19 0 0  
Oct 08 09:56 Calm 4 Light Rain and Fog/Mist FEW020 BKN035 BKN050 78 76     93%   80 30.19 30.19 0    
Oct 08 05:56 NE 5 6 Fog/Mist FEW025 SCT035 74 73     97%   76 30.15 30.14      
Oct 07 17:56 NE 3 10 Partly Cloudy FEW022 FEW050 SCT250 79 75     88%   83 30.14 30.14 0    
Oct 07 13:56 NNE 6 9 Light Rain BKN034 BKN070 86 73     65%   93 30.16 30.16 0   0
May 15 11:56 SSE 17 10 Mostly Cloudy SCT025 BKN035 BKN100 82 71     69%   86 30.05 30.04      
May 15 04:52 SE 8 10 Clear   75 72     89%   77 30        
May 14 20:56 S 7 10 Mostly Cloudy SCT075 BKN200 75 68     79%   76 30.04 30.04      
May 14 13:56 SSE 9 10 Mostly Cloudy SCT035 BKN050 BKN200 85 70     61%   89 30.06 30.06      
May 14 11:56 3 10 Mostly Cloudy BKN030 BKN200 81 68     65%   84 30.09 30.09      
May 14 04:56 Calm 8 Fog FEW002 FEW250 70 68     93%     30.04 30.03      
May 13 08:56 SSW 9 10 Clear CLR 78 69     74%   79 30.12 30.11      
May 13 00:56 S 6 10 Clear CLR 71 69     93%   72 30.12 30.11      
May 12 06:56 Calm 6 Fog FEW040 69 67     93%     30.12 30.11      
May 12 02:56 S 3 10 Clear CLR 66 64     93%       30.1      
May 12 01:56 Calm 10 Clear CLR 70 65     84%     30.11 30.11      
May 11 15:56 N 11 10 Mostly Clear FEW070 93 55     28%   91 30.03 30.03      
May 11 08:56 NW 7 10 Clear CLR 75 63     66%   75   30.07      
Jun 11 23:56 Calm 10 Mostly Cloudy BKN200 72 66     82%   73 30.19 30.19      
Jun 11 19:56 SSE 6 10 Mostly Cloudy FEW150 BKN220 77 63     62%   77 30.18 30.18      
Jun 10 22:56 SSE 6 10 Partly Cloudy SCT250 74 69     85%   75 30.17 30.17      
Jun 10 07:56 Calm 10 Mostly Clear FEW080 73 67     81%   74 30.1 30.09      
Jun 09 14:56 S 10 10 Mostly Cloudy BKN045 BKN250 84 65     53%   86 29.96 29.96      
Jun 09 08:56 SSE 5 10 Mostly Clear FEW250 71 62     73%   71 29.99 29.99      
Jun 08 21:56 E 6 10 Clear CLR 68 60     76%     29.88 29.88      
Notice The following observation data may not be complete
Jun 08 20:56   10 Clear CLR          %              
Jun 08 16:56 NNE 10 10 Partly Cloudy SCT040 76 56     50%   76 29.81 29.81      
Jun 08 08:15 N 14 2 Heavy Rain and Fog/Mist SCT010 BKN015 OVC035 61 59     93%     29.83   0    
Jun 07 18:56   4 Rain and Fog/Mist SCT011 SCT020 OVC050 66 63     90%     29.8 29.8 0    
Jun 07 14:56 NNE 14 10 Cloudy BKN010 BKN015 OVC025 70 67     90%     29.79 29.79 0    
Notice The following observation data may not be complete
Jun 07 14:33   10 Cloudy BKN010 BKN015 OVC020          %         0    
Jun 07 10:37 N 6 1.5 Heavy Rain and Fog/Mist FEW007 BKN025 OVC065 70 68     93%     29.79   0    
Jun 06 02:56 SW 9 10 Mostly Cloudy FEW050 BKN120 73 70     90%   74 29.78 29.78 0    
Jun 05 21:56 WSW 9 8 Thunderstorms and Rain SCT030 BKN045 OVC070 73 70     90%   74 29.81 29.81 0    
Jun 05 16:56   10 Thunderstorms and Rain SCT030 BKN060 BKN090 76 72     88%   77 29.78 29.78 0 0  
Jun 05 16:04 W 7 10 Mostly Cloudy SCT030 BKN045 BKN250 79 72     79%   82 29.75   0